Regional Weather Roundup
Issued by NWS

Home | Current Version | Previous Version | Graphics & Text | Print | Product List | Glossary On
Versions: 1 2 3 4 5 6 7 8 9 10 11 12 13 14 15 16 17 18 19 20 21 22 23 24 25 26 27 28 29 30 31 32 33 34 35 36 37 38 39 40 41 42 43 44 45 46 47 48 49 50
000
ASUS43 KLSX 030307
RWRMO

WEATHER SUMMARY FOR MISSOURI
NATIONAL WEATHER SERVICE SPRINGFIELD MO
900 PM CST MON MAR 02 2015

NOTE: "FAIR" INDICATES FEW OR NO CLOUDS BELOW 12,000 FEET WITH NO
       SIGNIFICANT WEATHER AND/OR OBSTRUCTIONS TO VISIBILITY.
       CURRENT SKY AND/OR WEATHER CONDITIONS ARE NOT AVAILABLE FOR
       CHILLICOTHE AND FARMINGTON.

MOZ001>031-035>038-043-044-053-054-030400-
...NORTHERN AND WESTERN MISSOURI...

CITY           SKY/WX    TMP DP  RH WIND       PRES   REMARKS
KANSAS CTY INT CLOUDY    33  21  61 SE12      30.10F WCI  24
KANSAS C DTWN  CLOUDY    36  21  54 SE6       30.12F
LEE`S SUMMIT   CLOUDY    34  21  59 SE7       30.12F WCI  28
ST JOSEPH      CLOUDY    33  20  58 SE13      30.10F WCI  24
CHILLICOTHE      N/A     33  21  61 SE7       30.16F WCI  27
KIRKSVILLE     CLOUDY    31  23  72 SE10      30.18F WCI  22

$$
MOZ066>068-077>081-088>096-101>105-030400-
...SOUTHWEST MISSOURI...

CITY           SKY/WX    TMP DP  RH WIND       PRES   REMARKS
SPRINGFIELD    CLOUDY    34  23  64 SE22      30.13F WCI  22
JOPLIN         CLOUDY    35  28  75 S9        30.13F WCI  28

$$
MOZ032>034-039>042-045>050-055>058-069>072-030400-
...CENTRAL MISSOURI...

CITY           SKY/WX    TMP DP  RH WIND       PRES   REMARKS
COLUMBIA       CLOUDY    33  20  58 SE13      30.18F WCI  24
JEFFERSON CITY CLOUDY    33  21  61 E10       30.22F WCI  25
ROLLA          CLOUDY    33  20  58 SE9       30.19F WCI  25
SEDALIA        CLOUDY    34  22  61 SE13      30.14F WCI  25
WHITEMAN AFB   CLOUDY    34  23  64 SE7       30.13F WCI  28
WARRENSBURG    CLOUDY    34  23  64 SE5       30.15S WCI  30
OSAGE BEACH    CLOUDY    37  19  48 SE6       30.19F

$$
MOZ051-052-059>065-030400-
...EAST CENTRAL MISSOURI...

CITY           SKY/WX    TMP DP  RH WIND       PRES   REMARKS
ST LOUIS INTL  CLOUDY    32  20  61 E9        30.27F WCI  24
SPIRIT OF STL  CLOUDY    32  19  58 SE5       30.27F WCI  27
ST CHARLES     CLOUDY    29  22  75 E8        30.27F WCI  21

$$
MOZ072>076-082>087-097>100-106>115-030400-
...SOUTH CENTRAL AND SOUTHEAST MISSOURI...

CITY           SKY/WX    TMP DP  RH WIND       PRES   REMARKS
CAPE GIRARDEAU CLOUDY    36  23  59 E6        30.28F
FARMINGTON     CLOUDY    30  21  69 SE7       30.27F WCI  23
POPLAR BLUFF   CLOUDY    35  23  61 CALM      30.28F
WEST PLAINS    CLOUDY    33  18  53 SE10G17   30.22F WCI  25

$$


USA.gov is the U.S. government's official web portal to all federal, state and local government web resources and services.